JES3071 SAME-SABE

Flight info

Callsign JES3071
Flight time 1h 9m
Altitude 39000
Route KAMUV2C KAMUV UT670 SNT SNT8Q
Aircraft A320/M-SDE3FGHIRWY/LB1

Departure

Time 2026-05-06 15:22
Airport Governor Francisco Gabrielli International Airport (SAME)

Arrival

Time 2026-05-06 16:32
Airport Aeroparque Jorge Newbery (SABE)
Time Latitude Longitude Altitude Speed Heading
2026-05-06 14:55 -32.82722 -68.79777 2346 ft 0 kts 271°
2026-05-06 15:12 -32.82722 -68.79766 2329 ft 4 kts 267°
2026-05-06 15:12 -32.82718 -68.79735 2331 ft 4 kts 245°
2026-05-06 15:12 -32.82703 -68.79711 2332 ft 4 kts 206°
2026-05-06 15:12 -32.82688 -68.79706 2330 ft 0 kts 181°
2026-05-06 15:16 -32.82691 -68.79706 2331 ft 1 kts 181°
2026-05-06 15:16 -32.82707 -68.79706 2332 ft 3 kts 181°
2026-05-06 15:16 -32.82736 -68.79707 2332 ft 5 kts 181°
2026-05-06 15:17 -32.82779 -68.79707 2334 ft 7 kts 181°
2026-05-06 15:17 -32.82835 -68.79709 2334 ft 9 kts 181°
2026-05-06 15:17 -32.82905 -68.79709 2334 ft 11 kts 179°
2026-05-06 15:17 -32.82932 -68.79635 2334 ft 12 kts 95°
2026-05-06 15:18 -32.82988 -68.79561 2335 ft 13 kts 141°
2026-05-06 15:18 -32.83072 -68.79509 2334 ft 14 kts 178°
2026-05-06 15:18 -32.83180 -68.79514 2334 ft 17 kts 180°
2026-05-06 15:18 -32.83303 -68.79517 2334 ft 19 kts 181°
2026-05-06 15:19 -32.83438 -68.79519 2336 ft 21 kts 181°
2026-05-06 15:19 -32.83590 -68.79523 2336 ft 23 kts 181°
2026-05-06 15:19 -32.83753 -68.79526 2336 ft 24 kts 180°
2026-05-06 15:19 -32.83926 -68.79528 2336 ft 26 kts 181°
2026-05-06 15:20 -32.84061 -68.79508 2336 ft 16 kts 149°
2026-05-06 15:20 -32.84155 -68.79465 2336 ft 15 kts 162°
2026-05-06 15:20 -32.84251 -68.79414 2337 ft 16 kts 133°
2026-05-06 15:20 -32.84326 -68.79324 2338 ft 16 kts 166°
2026-05-06 15:21 -32.84424 -68.79308 2341 ft 10 kts 102°
2026-05-06 15:21 -32.84405 -68.79304 2340 ft 4 kts 330°
2026-05-06 15:21 -32.84374 -68.79317 2338 ft 6 kts 353°
2026-05-06 15:21 -32.84344 -68.79316 2338 ft 7 kts
2026-05-06 15:22 -32.84085 -68.79310 2339 ft 73 kts
2026-05-06 15:22 -32.83367 -68.79295 2335 ft 130 kts
2026-05-06 15:22 -32.82319 -68.79269 2410 ft 166 kts
2026-05-06 15:22 -32.81162 -68.79215 3012 ft 167 kts
2026-05-06 15:23 -32.79998 -68.79174 3693 ft 166 kts
2026-05-06 15:23 -32.78833 -68.79136 4305 ft 173 kts
2026-05-06 15:23 -32.77565 -68.79083 4653 ft 191 kts
2026-05-06 15:23 -32.76217 -68.78651 4968 ft 216 kts 28°
2026-05-06 15:24 -32.75152 -68.77249 5311 ft 249 kts 62°
2026-05-06 15:24 -32.74663 -68.75175 5853 ft 271 kts 76°
2026-05-06 15:24 -32.74413 -68.72914 6573 ft 281 kts 79°
2026-05-06 15:24 -32.74176 -68.70586 7350 ft 286 kts 77°
2026-05-06 15:25 -32.73873 -68.68236 8171 ft 289 kts 75°
2026-05-06 15:25 -32.73499 -68.65873 8996 ft 293 kts 73°
2026-05-06 15:25 -32.73157 -68.63469 9797 ft 300 kts 82°
2026-05-06 15:25 -32.73267 -68.60933 10343 ft 320 kts 98°
2026-05-06 15:26 -32.73776 -68.58257 10600 ft 345 kts 101°
2026-05-06 15:26 -32.74343 -68.55422 11034 ft 359 kts 101°
2026-05-06 15:26 -32.74931 -68.52517 11711 ft 364 kts 101°
2026-05-06 15:26 -32.75532 -68.49539 12224 ft 376 kts 101°
2026-05-06 15:27 -32.76144 -68.46484 12860 ft 383 kts 101°
2026-05-06 15:27 -32.76760 -68.43382 13544 ft 388 kts 101°
2026-05-06 15:27 -32.77383 -68.40234 14151 ft 394 kts 101°
2026-05-06 15:27 -32.78010 -68.37046 14721 ft 400 kts 101°
2026-05-06 15:28 -32.78645 -68.33808 15264 ft 406 kts 101°
2026-05-06 15:28 -32.79292 -68.30516 15839 ft 411 kts 101°
2026-05-06 15:28 -32.79948 -68.27174 16357 ft 418 kts 101°
2026-05-06 15:28 -32.80616 -68.23785 16907 ft 424 kts 102°
2026-05-06 15:29 -32.81290 -68.20351 17466 ft 430 kts 102°
2026-05-06 15:29 -32.81974 -68.16867 18032 ft 434 kts 101°
2026-05-06 15:29 -32.82661 -68.13362 18587 ft 437 kts 101°
2026-05-06 15:29 -32.83352 -68.09824 19130 ft 441 kts 101°
2026-05-06 15:30 -32.84047 -68.06253 19665 ft 445 kts 101°
2026-05-06 15:30 -32.84746 -68.02650 20200 ft 449 kts 101°
2026-05-06 15:30 -32.85451 -67.99020 20723 ft 453 kts 101°
2026-05-06 15:30 -32.86162 -67.95354 21233 ft 457 kts 101°
2026-05-06 15:31 -32.86866 -67.91707 21705 ft 460 kts 101°
2026-05-06 15:31 -32.87584 -67.87984 22201 ft 464 kts 101°
2026-05-06 15:31 -32.88309 -67.84223 22682 ft 468 kts 101°
2026-05-06 15:32 -32.89773 -67.76619 23595 ft 475 kts 100°
2026-05-06 15:32 -32.90509 -67.72772 23992 ft 478 kts 100°
2026-05-06 15:32 -32.91246 -67.68899 24393 ft 482 kts 100°
2026-05-06 15:32 -32.91996 -67.65002 24843 ft 485 kts 100°
2026-05-06 15:33 -32.92774 -67.61026 25228 ft 489 kts 100°
2026-05-06 15:33 -32.93543 -67.57123 25617 ft 492 kts 100°
2026-05-06 15:33 -32.94326 -67.53145 25984 ft 495 kts 99°
2026-05-06 15:33 -32.95106 -67.49159 26460 ft 495 kts 99°
2026-05-06 15:34 -32.95888 -67.45155 26877 ft 498 kts 99°
2026-05-06 15:34 -32.96670 -67.41132 27263 ft 501 kts 99°
2026-05-06 15:34 -32.97452 -67.37077 27633 ft 504 kts 99°
2026-05-06 15:34 -32.98237 -67.32997 28007 ft 507 kts 99°
2026-05-06 15:35 -32.99026 -67.28891 28382 ft 510 kts 99°
2026-05-06 15:35 -32.99816 -67.24768 28755 ft 513 kts 98°
2026-05-06 15:35 -33.00619 -67.20560 29075 ft 516 kts 98°
2026-05-06 15:35 -33.01404 -67.16444 29498 ft 518 kts 98°
2026-05-06 15:36 -33.01944 -67.13612 29760 ft 520 kts 98°
2026-05-06 15:36 -33.03011 -67.08015 30176 ft 524 kts 98°
2026-05-06 15:36 -33.03819 -67.03766 30460 ft 528 kts 98°
2026-05-06 15:36 -33.04634 -66.99478 30779 ft 532 kts 98°
2026-05-06 15:37 -33.05455 -66.95157 31066 ft 536 kts 98°
2026-05-06 15:37 -33.06279 -66.90816 31364 ft 539 kts 98°
2026-05-06 15:37 -33.06837 -66.87868 31583 ft 539 kts 98°
2026-05-06 15:37 -33.07659 -66.83501 31957 ft 541 kts 98°
2026-05-06 15:38 -33.08485 -66.79118 32312 ft 543 kts 98°
2026-05-06 15:38 -33.09316 -66.74720 32658 ft 545 kts 98°
2026-05-06 15:38 -33.10140 -66.70365 33010 ft 547 kts 98°
2026-05-06 15:38 -33.10980 -66.65926 33367 ft 549 kts 98°
2026-05-06 15:39 -33.11815 -66.61491 33724 ft 551 kts 98°
2026-05-06 15:39 -33.12651 -66.57032 33987 ft 552 kts 98°
2026-05-06 15:39 -33.13499 -66.52506 34412 ft 551 kts 98°
2026-05-06 15:39 -33.14332 -66.48046 34803 ft 550 kts 98°
2026-05-06 15:40 -33.15161 -66.43586 35166 ft 550 kts 98°
2026-05-06 15:40 -33.15978 -66.39184 35503 ft 550 kts 98°
2026-05-06 15:40 -33.16808 -66.34726 35905 ft 550 kts 98°
2026-05-06 15:40 -33.17635 -66.30277 36290 ft 548 kts 98°
2026-05-06 15:41 -33.18458 -66.25835 36650 ft 548 kts 99°
2026-05-06 15:41 -33.19278 -66.21394 36877 ft 548 kts 97°
2026-05-06 15:41 -33.20099 -66.16937 37060 ft 550 kts 98°
2026-05-06 15:41 -33.20922 -66.12478 37345 ft 550 kts 99°
2026-05-06 15:42 -33.21745 -66.08021 37632 ft 550 kts 99°
2026-05-06 15:42 -33.22564 -66.03562 37905 ft 550 kts 99°
2026-05-06 15:42 -33.23384 -65.99100 38190 ft 550 kts 99°
2026-05-06 15:42 -33.24199 -65.94640 38446 ft 550 kts 99°
2026-05-06 15:43 -33.25010 -65.90177 38609 ft 550 kts 99°
2026-05-06 15:43 -33.25819 -65.85703 38747 ft 551 kts 99°
2026-05-06 15:43 -33.27430 -65.76803 38782 ft 552 kts 99°
2026-05-06 15:44 -33.29049 -65.67839 38766 ft 551 kts 98°
2026-05-06 15:44 -33.30657 -65.58866 38760 ft 552 kts 99°
2026-05-06 15:45 -33.32265 -65.49878 38779 ft 553 kts 98°
2026-05-06 15:45 -33.33865 -65.40881 38781 ft 553 kts 98°
2026-05-06 15:46 -33.35463 -65.31886 38784 ft 553 kts 98°
2026-05-06 15:46 -33.37054 -65.22875 38770 ft 553 kts 99°
2026-05-06 15:47 -33.38637 -65.13873 38786 ft 553 kts 99°
2026-05-06 15:47 -33.40211 -65.04861 38814 ft 553 kts 98°
2026-05-06 15:48 -33.41767 -64.95898 38756 ft 553 kts 99°
2026-05-06 15:48 -33.43336 -64.86834 38775 ft 552 kts 99°
2026-05-06 15:49 -33.44879 -64.77901 38785 ft 551 kts 99°
2026-05-06 15:49 -33.46421 -64.68898 38790 ft 551 kts 98°
2026-05-06 15:50 -33.47961 -64.59915 38792 ft 550 kts 98°
2026-05-06 15:50 -33.49489 -64.50935 38794 ft 550 kts 98°
2026-05-06 15:51 -33.50948 -64.41934 38778 ft 549 kts 97°
2026-05-06 15:51 -33.52362 -64.32941 38745 ft 549 kts 97°
2026-05-06 15:52 -33.53786 -64.23945 38767 ft 550 kts 98°
2026-05-06 15:52 -33.55216 -64.15001 38785 ft 550 kts 98°
2026-05-06 15:53 -33.56648 -64.05995 38792 ft 550 kts 98°
2026-05-06 15:53 -33.58070 -63.96992 38792 ft 549 kts 98°
2026-05-06 15:54 -33.59486 -63.87995 38801 ft 548 kts 98°
2026-05-06 15:54 -33.60880 -63.79011 38800 ft 548 kts 98°
2026-05-06 15:55 -33.62270 -63.70032 38785 ft 547 kts 98°
2026-05-06 15:55 -33.63655 -63.61062 38799 ft 546 kts 98°
2026-05-06 15:56 -33.65039 -63.52096 38806 ft 546 kts 98°
2026-05-06 15:56 -33.66415 -63.43136 38773 ft 546 kts 98°
2026-05-06 15:57 -33.67782 -63.34175 38774 ft 546 kts 98°
2026-05-06 15:57 -33.69139 -63.25207 38783 ft 546 kts 98°
2026-05-06 15:58 -33.70492 -63.16223 38794 ft 546 kts 98°
2026-05-06 15:58 -33.71828 -63.07312 38765 ft 546 kts 98°
2026-05-06 15:59 -33.73165 -62.98335 38769 ft 546 kts 98°
2026-05-06 15:59 -33.74550 -62.89363 38779 ft 546 kts 98°
2026-05-06 16:00 -33.75945 -62.80385 38759 ft 547 kts 98°
2026-05-06 16:00 -33.77314 -62.71397 38783 ft 547 kts 98°
2026-05-06 16:01 -33.78668 -62.62398 38826 ft 547 kts 98°
2026-05-06 16:01 -33.80011 -62.53421 38786 ft 545 kts 98°
2026-05-06 16:02 -33.81353 -62.44453 38767 ft 545 kts 98°
2026-05-06 16:02 -33.82691 -62.35471 38783 ft 545 kts 98°
2026-05-06 16:03 -33.84017 -62.26491 38786 ft 545 kts 98°
2026-05-06 16:03 -33.85340 -62.17503 38776 ft 546 kts 98°
2026-05-06 16:04 -33.86652 -62.08504 38783 ft 546 kts 98°
2026-05-06 16:04 -33.87972 -61.99497 38811 ft 546 kts 98°
2026-05-06 16:05 -33.89281 -61.90504 38786 ft 545 kts 98°
2026-05-06 16:05 -33.90572 -61.81572 38795 ft 545 kts 98°
2026-05-06 16:06 -33.91861 -61.72581 38796 ft 544 kts 98°
2026-05-06 16:06 -33.93136 -61.63603 38796 ft 544 kts 98°
2026-05-06 16:07 -33.94398 -61.54631 38801 ft 544 kts 98°
2026-05-06 16:07 -33.95660 -61.45649 38800 ft 544 kts 98°
2026-05-06 16:08 -33.96295 -61.41129 38657 ft 553 kts 98°
2026-05-06 16:08 -33.96939 -61.36531 38424 ft 559 kts 98°
2026-05-06 16:08 -33.97587 -61.31901 38128 ft 560 kts 98°
2026-05-06 16:08 -33.98231 -61.27284 37856 ft 557 kts 98°
2026-05-06 16:09 -33.98870 -61.22690 37577 ft 554 kts 98°
2026-05-06 16:09 -33.99501 -61.18123 37303 ft 551 kts 98°
2026-05-06 16:09 -34.00127 -61.13574 37043 ft 548 kts 98°
2026-05-06 16:09 -34.00749 -61.09049 36780 ft 545 kts 98°
2026-05-06 16:10 -34.01367 -61.04549 36305 ft 544 kts 97°
2026-05-06 16:10 -34.01980 -61.00068 35880 ft 539 kts 98°
2026-05-06 16:10 -34.02587 -60.95616 35407 ft 537 kts 97°
2026-05-06 16:10 -34.03189 -60.91187 34941 ft 534 kts 97°
2026-05-06 16:11 -34.03787 -60.86767 34462 ft 532 kts 97°
2026-05-06 16:11 -34.04381 -60.82375 33967 ft 531 kts 97°
2026-05-06 16:11 -34.04972 -60.77995 33431 ft 528 kts 97°
2026-05-06 16:11 -34.05551 -60.73690 32928 ft 524 kts 97°
2026-05-06 16:12 -34.06138 -60.69315 32450 ft 520 kts 97°
2026-05-06 16:12 -34.06712 -60.65025 31955 ft 516 kts 97°
2026-05-06 16:12 -34.07274 -60.60815 31478 ft 512 kts 97°
2026-05-06 16:12 -34.07838 -60.56591 31087 ft 506 kts 97°
2026-05-06 16:13 -34.08393 -60.52411 30611 ft 502 kts 96°
2026-05-06 16:13 -34.08937 -60.48287 30142 ft 497 kts 96°
2026-05-06 16:13 -34.09475 -60.44198 29658 ft 489 kts 97°
2026-05-06 16:13 -34.10004 -60.40177 29215 ft 481 kts 96°
2026-05-06 16:14 -34.10524 -60.36206 28710 ft 477 kts 96°
2026-05-06 16:14 -34.11039 -60.32276 28310 ft 471 kts 96°
2026-05-06 16:14 -34.11544 -60.28393 27923 ft 466 kts 96°
2026-05-06 16:14 -34.12045 -60.24547 27472 ft 462 kts 96°
2026-05-06 16:15 -34.12541 -60.20727 27048 ft 458 kts 96°
2026-05-06 16:15 -34.13032 -60.16943 26604 ft 455 kts 96°
2026-05-06 16:15 -34.13520 -60.13184 26184 ft 452 kts 96°
2026-05-06 16:15 -34.14005 -60.09451 25748 ft 450 kts 96°
2026-05-06 16:16 -34.14485 -60.05729 25288 ft 448 kts 96°
2026-05-06 16:16 -34.14959 -60.02006 24825 ft 447 kts 96°
2026-05-06 16:16 -34.15429 -59.98301 24378 ft 445 kts 95°
2026-05-06 16:16 -34.15896 -59.94622 23916 ft 442 kts 95°
2026-05-06 16:17 -34.16356 -59.91001 23385 ft 433 kts 95°
2026-05-06 16:17 -34.16809 -59.87455 22845 ft 431 kts 96°
2026-05-06 16:17 -34.17264 -59.83886 22386 ft 428 kts 95°
2026-05-06 16:17 -34.17716 -59.80338 21913 ft 426 kts 95°
2026-05-06 16:18 -34.18162 -59.76816 21508 ft 421 kts 95°
2026-05-06 16:18 -34.18600 -59.73327 21055 ft 419 kts 95°
2026-05-06 16:18 -34.19034 -59.69878 20512 ft 413 kts 95°
2026-05-06 16:18 -34.19465 -59.66448 19997 ft 412 kts 95°
2026-05-06 16:19 -34.19891 -59.63046 19561 ft 409 kts 95°
2026-05-06 16:19 -34.20310 -59.59693 19016 ft 399 kts 95°
2026-05-06 16:19 -34.20722 -59.56383 18576 ft 397 kts 95°
2026-05-06 16:19 -34.21129 -59.53093 18105 ft 396 kts 95°
2026-05-06 16:20 -34.21532 -59.49802 17592 ft 395 kts 95°
2026-05-06 16:20 -34.21933 -59.46534 17178 ft 391 kts 95°
2026-05-06 16:20 -34.22334 -59.43302 16634 ft 384 kts 95°
2026-05-06 16:20 -34.22774 -59.40169 16206 ft 375 kts 97°
2026-05-06 16:21 -34.23252 -59.37068 15755 ft 375 kts 97°
2026-05-06 16:21 -34.23744 -59.33978 15307 ft 374 kts 97°
2026-05-06 16:21 -34.24235 -59.30897 14850 ft 373 kts 97°
2026-05-06 16:21 -34.24720 -59.27817 14403 ft 372 kts 97°
2026-05-06 16:22 -34.25195 -59.24748 14031 ft 369 kts 97°
2026-05-06 16:22 -34.25661 -59.21701 13619 ft 367 kts 97°
2026-05-06 16:22 -34.26109 -59.18733 13176 ft 360 kts 96°
2026-05-06 16:22 -34.26555 -59.15759 12614 ft 359 kts 96°
2026-05-06 16:23 -34.26855 -59.13748 12337 ft 357 kts 96°
2026-05-06 16:23 -34.27439 -59.09861 11810 ft 354 kts 96°
2026-05-06 16:23 -34.27872 -59.06977 11303 ft 344 kts 96°
2026-05-06 16:23 -34.28296 -59.04160 10821 ft 340 kts 96°
2026-05-06 16:24 -34.28718 -59.01356 10455 ft 337 kts 96°
2026-05-06 16:24 -34.29001 -58.99469 10204 ft 336 kts 96°
2026-05-06 16:24 -34.29414 -58.96725 9720 ft 327 kts 95°
2026-05-06 16:24 -34.29813 -58.94089 9373 ft 312 kts 95°
2026-05-06 16:25 -34.30196 -58.91538 8869 ft 308 kts 95°
2026-05-06 16:25 -34.30601 -58.88788 8502 ft 306 kts 95°
2026-05-06 16:25 -34.30943 -58.86438 8063 ft 310 kts 95°
2026-05-06 16:25 -34.31314 -58.83896 7647 ft 301 kts 95°
2026-05-06 16:26 -34.31674 -58.81452 7268 ft 291 kts 94°
2026-05-06 16:26 -34.32023 -58.79102 6895 ft 283 kts 94°
2026-05-06 16:26 -34.32509 -58.76824 6541 ft 281 kts 109°
2026-05-06 16:26 -34.33559 -58.74849 6178 ft 280 kts 130°
2026-05-06 16:27 -34.34905 -58.73183 5792 ft 273 kts 131°
2026-05-06 16:27 -34.36230 -58.71544 5441 ft 274 kts 131°
2026-05-06 16:27 -34.37565 -58.69885 5091 ft 275 kts 131°
2026-05-06 16:27 -34.38902 -58.68219 4718 ft 277 kts 131°
2026-05-06 16:28 -34.40244 -58.66547 4397 ft 276 kts 131°
2026-05-06 16:28 -34.41582 -58.64877 4052 ft 275 kts 131°
2026-05-06 16:28 -34.42907 -58.63221 3741 ft 273 kts 131°
2026-05-06 16:28 -34.44230 -58.61569 3418 ft 272 kts 131°
2026-05-06 16:29 -34.45526 -58.59929 3194 ft 266 kts 128°
2026-05-06 16:29 -34.46649 -58.58194 2940 ft 259 kts 121°
2026-05-06 16:29 -34.47632 -58.56431 2625 ft 246 kts 118°
2026-05-06 16:29 -34.48566 -58.54742 2314 ft 238 kts 118°
2026-05-06 16:30 -34.49487 -58.53094 2004 ft 234 kts 119°
2026-05-06 16:30 -34.50089 -58.52019 1807 ft 232 kts 118°
2026-05-06 16:30 -34.51294 -58.49862 1419 ft 228 kts 118°
2026-05-06 16:30 -34.52165 -58.48309 1126 ft 217 kts 119°
2026-05-06 16:31 -34.52987 -58.46838 875 ft 202 kts 120°
2026-05-06 16:31 -34.53733 -58.45506 646 ft 180 kts 121°
2026-05-06 16:31 -34.54395 -58.44315 423 ft 162 kts 123°
2026-05-06 16:31 -34.55007 -58.43212 189 ft 153 kts 123°
2026-05-06 16:32 -34.55576 -58.42203 29 ft 139 kts 123°
2026-05-06 16:32 -34.55969 -58.41498 24 ft 58 kts 124°
2026-05-06 16:32 -34.56143 -58.41184 27 ft 33 kts 124°
2026-05-06 16:32 -34.56178 -58.41033 31 ft 8 kts 46°
2026-05-06 16:33 -34.56145 -58.40981 29 ft 7 kts 38°
2026-05-06 16:33 -34.56113 -58.41009 30 ft 7 kts 318°
2026-05-06 16:33 -34.56074 -58.41063 26 ft 10 kts 308°
2026-05-06 16:34 -34.55968 -58.41232 28 ft 16 kts 308°
2026-05-06 16:34 -34.55903 -58.41352 30 ft 19 kts 296°
2026-05-06 16:34 -34.55842 -58.41499 29 ft 17 kts 297°
2026-05-06 16:34 -34.55769 -58.41585 25 ft 15 kts 11°
2026-05-06 16:35 -34.55697 -58.41640 29 ft 14 kts 304°
2026-05-06 16:35 -34.55635 -58.41740 29 ft 13 kts 339°
2026-05-06 16:35 -34.55576 -58.41697 25 ft 6 kts 34°
2026-05-06 16:35 -34.55553 -58.41678 26 ft 1 kts 35°
2026-05-06 16:36 -34.55552 -58.41677 25 ft 0 kts 35°